Time,TemperatureF,DewpointF,PressureIn,WindDirection,WindDirectionDegrees,WindSpeedMPH,WindSpeedGustMPH,Humidity,HourlyPrecipIn,Conditions,Clouds,dailyrainin,SoftwareType,DateUTC
2013-01-15 00:03:00,24.0,20.0,30.43,WNW,294,2.0,4.0,84,0.00,,,0.00,,2013-01-15 05:03:00,
2013-01-15 00:12:00,23.0,19.0,30.43,WNW,294,1.0,4.0,84,0.00,,,0.00,,2013-01-15 05:12:00,
2013-01-15 00:22:00,23.0,19.0,30.43,WNW,294,1.0,4.0,84,0.00,,,0.00,,2013-01-15 05:22:00,
2013-01-15 00:33:00,23.0,19.0,30.43,WNW,294,1.0,4.0,84,0.00,,,0.00,,2013-01-15 05:33:00,
2013-01-15 00:42:00,23.0,19.0,30.43,WNW,294,1.0,4.0,84,0.00,,,0.00,,2013-01-15 05:42:00,
2013-01-15 00:53:00,23.0,19.0,30.43,WNW,294,0.0,2.0,85,0.00,,,0.00,,2013-01-15 05:53:00,
2013-01-15 01:02:00,23.0,19.0,30.43,WNW,294,0.0,2.0,85,0.00,,,0.00,,2013-01-15 06:02:00,
2013-01-15 01:12:00,23.0,19.0,30.43,WNW,294,0.0,2.0,85,0.00,,,0.00,,2013-01-15 06:12:00,
2013-01-15 01:22:00,24.0,20.0,30.44,WNW,296,2.0,4.0,85,0.00,,,0.00,,2013-01-15 06:22:00,
2013-01-15 01:33:00,24.0,20.0,30.44,WNW,296,2.0,4.0,85,0.00,,,0.00,,2013-01-15 06:33:00,
2013-01-15 01:43:00,24.0,20.0,30.44,WNW,296,2.0,4.0,85,0.00,,,0.00,,2013-01-15 06:43:00,
2013-01-15 01:53:00,24.0,20.0,30.43,WNW,295,1.0,3.0,85,0.00,,,0.00,,2013-01-15 06:53:00,
2013-01-15 02:02:00,23.0,19.0,30.43,WNW,295,0.0,2.0,85,0.00,,,0.00,,2013-01-15 07:02:00,
2013-01-15 02:12:00,23.0,19.0,30.43,WNW,295,0.0,2.0,85,0.00,,,0.00,,2013-01-15 07:12:00,
2013-01-15 02:22:00,22.0,18.0,30.44,West,280,0.0,3.0,86,0.00,,,0.00,,2013-01-15 07:22:00,
2013-01-15 02:33:00,22.0,18.0,30.44,West,280,2.0,3.0,86,0.00,,,0.00,,2013-01-15 07:33:00,
2013-01-15 02:42:00,22.0,18.0,30.44,West,280,2.0,3.0,86,0.00,,,0.00,,2013-01-15 07:42:00,
2013-01-15 02:53:00,22.0,19.0,30.44,WNW,298,1.0,3.0,87,0.00,,,0.00,,2013-01-15 07:53:00,
2013-01-15 03:02:00,22.0,19.0,30.44,WNW,296,1.0,4.0,88,0.00,,,0.00,,2013-01-15 08:02:00,
2013-01-15 03:12:00,22.0,19.0,30.44,WNW,296,1.0,4.0,88,0.00,,,0.00,,2013-01-15 08:12:00,
2013-01-15 03:22:00,21.0,18.0,30.43,NW,305,2.0,4.0,88,0.00,,,0.00,,2013-01-15 08:22:00,
2013-01-15 03:33:00,21.0,18.0,30.43,NW,305,2.0,4.0,88,0.00,,,0.00,,2013-01-15 08:33:00,
2013-01-15 03:42:00,21.0,18.0,30.43,NW,305,2.0,4.0,88,0.00,,,0.00,,2013-01-15 08:42:00,
2013-01-15 03:53:00,21.0,18.0,30.44,WNW,296,3.0,5.0,88,0.00,,,0.00,,2013-01-15 08:53:00,
2013-01-15 04:02:00,21.0,18.0,30.43,NW,311,3.0,7.0,89,0.00,,,0.00,,2013-01-15 09:02:00,
2013-01-15 04:12:00,21.0,18.0,30.43,NW,311,3.0,7.0,89,0.00,,,0.00,,2013-01-15 09:12:00,
2013-01-15 04:22:00,21.0,18.0,30.43,WNW,297,3.0,4.0,89,0.00,,,0.00,,2013-01-15 09:22:00,
2013-01-15 04:33:00,21.0,18.0,30.43,WNW,297,3.0,4.0,89,0.00,,,0.00,,2013-01-15 09:33:00,
2013-01-15 04:42:00,21.0,18.0,30.43,WNW,297,3.0,4.0,89,0.00,,,0.00,,2013-01-15 09:42:00,
2013-01-15 04:52:00,20.0,17.0,30.43,WNW,299,2.0,4.0,88,0.00,,,0.00,,2013-01-15 09:52:00,
2013-01-15 05:02:00,20.0,17.0,30.43,WNW,299,1.0,3.0,88,0.00,,,0.00,,2013-01-15 10:02:00,
2013-01-15 05:12:00,20.0,17.0,30.43,WNW,299,1.0,3.0,88,0.00,,,0.00,,2013-01-15 10:12:00,
2013-01-15 05:22:00,19.0,16.0,30.43,WNW,299,2.0,4.0,88,0.00,,,0.00,,2013-01-15 10:22:00,
2013-01-15 05:32:00,19.0,16.0,30.43,WNW,299,2.0,4.0,88,0.00,,,0.00,,2013-01-15 10:32:00,
2013-01-15 05:42:00,19.0,16.0,30.43,WNW,299,2.0,4.0,88,0.00,,,0.00,,2013-01-15 10:42:00,
2013-01-15 05:52:00,19.0,16.0,30.43,NW,317,2.0,5.0,89,0.00,,,0.00,,2013-01-15 10:52:00,
2013-01-15 06:02:00,19.0,16.0,30.43,NW,317,3.0,6.0,89,0.00,,,0.00,,2013-01-15 11:02:00,
2013-01-15 06:12:00,19.0,16.0,30.43,NW,317,3.0,6.0,89,0.00,,,0.00,,2013-01-15 11:12:00,
2013-01-15 06:22:00,19.0,16.0,30.45,NW,326,3.0,9.0,89,0.00,,,0.00,,2013-01-15 11:22:00,
2013-01-15 06:33:00,19.0,16.0,30.45,NW,326,3.0,9.0,89,0.00,,,0.00,,2013-01-15 11:33:00,
2013-01-15 06:42:00,19.0,16.0,30.45,NW,326,3.0,9.0,89,0.00,,,0.00,,2013-01-15 11:42:00,
2013-01-15 06:53:00,19.0,16.0,30.46,NW,310,3.0,5.0,89,0.00,,,0.00,,2013-01-15 11:53:00,
2013-01-15 07:03:00,19.0,16.0,30.46,NW,310,3.0,5.0,89,0.00,,,0.00,,2013-01-15 12:03:00,
2013-01-15 07:12:00,19.0,16.0,30.46,NW,310,3.0,5.0,89,0.00,,,0.00,,2013-01-15 12:12:00,
2013-01-15 07:22:00,19.0,16.0,30.46,NW,326,4.0,5.0,89,0.00,,,0.00,,2013-01-15 12:22:00,
2013-01-15 07:33:00,19.0,16.0,30.45,NNW,338,3.0,9.0,89,0.00,,,0.00,,2013-01-15 12:33:00,
2013-01-15 07:43:00,19.0,16.0,30.45,NNW,338,3.0,9.0,89,0.00,,,0.00,,2013-01-15 12:43:00,
2013-01-15 07:53:00,19.0,16.0,30.44,North,355,3.0,7.0,89,0.00,,,0.00,,2013-01-15 12:53:00,
2013-01-15 08:03:00,19.0,16.0,30.44,NNE,13,5.0,7.0,89,0.00,,,0.00,,2013-01-15 13:03:00,
2013-01-15 08:12:00,19.0,16.0,30.44,NNE,13,5.0,7.0,89,0.00,,,0.00,,2013-01-15 13:12:00,
2013-01-15 08:23:00,20.0,17.0,30.45,North,10,4.0,9.0,89,0.00,,,0.00,,2013-01-15 13:23:00,
2013-01-15 08:33:00,20.0,17.0,30.45,NNE,21,3.0,6.0,89,0.00,,,0.00,,2013-01-15 13:33:00,
2013-01-15 08:43:00,20.0,17.0,30.45,NNE,21,3.0,6.0,89,0.00,,,0.00,,2013-01-15 13:43:00,
2013-01-15 08:53:00,20.0,17.0,30.45,NNE,21,3.0,6.0,89,0.00,,,0.00,,2013-01-15 13:53:00,
2013-01-15 09:03:00,20.0,17.0,30.45,NNE,21,3.0,6.0,89,0.00,,,0.00,,2013-01-15 14:03:00,
2013-01-15 09:12:00,20.0,17.0,30.45,NNE,21,3.0,6.0,89,0.00,,,0.00,,2013-01-15 14:12:00,
2013-01-15 09:23:00,23.0,20.0,30.47,NNE,22,5.0,7.0,88,0.00,,,0.00,,2013-01-15 14:23:00,
2013-01-15 09:33:00,23.0,20.0,30.46,NNE,17,6.0,7.0,87,0.00,,,0.00,,2013-01-15 14:33:00,
2013-01-15 09:43:00,23.0,20.0,30.46,NNE,17,6.0,7.0,87,0.00,,,0.00,,2013-01-15 14:43:00,
2013-01-15 09:54:00,25.0,21.0,30.45,NNE,28,6.0,11.0,84,0.00,,,0.00,,2013-01-15 14:54:00,
2013-01-15 10:03:00,25.0,21.0,30.45,NNE,28,6.0,11.0,84,0.00,,,0.00,,2013-01-15 15:03:00,
2013-01-15 10:12:00,25.0,21.0,30.45,NNE,28,6.0,11.0,84,0.00,,,0.00,,2013-01-15 15:12:00,
2013-01-15 10:23:00,27.0,22.0,30.44,NNE,17,11.0,15.0,81,0.00,,,0.00,,2013-01-15 15:23:00,
2013-01-15 10:33:00,28.0,22.0,30.43,NE,34,8.0,14.0,78,0.00,,,0.00,,2013-01-15 15:33:00,
2013-01-15 10:43:00,28.0,22.0,30.43,NE,34,8.0,14.0,78,0.00,,,0.00,,2013-01-15 15:43:00,
2013-01-15 10:53:00,28.0,22.0,30.44,NNE,13,11.0,15.0,77,0.00,,,0.00,,2013-01-15 15:53:00,
2013-01-15 11:03:00,28.0,21.0,30.45,NNE,24,10.0,15.0,76,0.00,,,0.00,,2013-01-15 16:03:00,
2013-01-15 11:12:00,28.0,21.0,30.45,NNE,24,10.0,15.0,76,0.00,,,0.00,,2013-01-15 16:12:00,
2013-01-15 11:23:00,28.0,20.0,30.45,NNE,32,8.0,13.0,71,0.00,,,0.00,,2013-01-15 16:23:00,
2013-01-15 11:33:00,29.0,22.0,30.45,NE,45,9.0,15.0,74,0.00,,,0.00,,2013-01-15 16:33:00,
2013-01-15 11:43:00,29.0,22.0,30.45,NE,45,9.0,15.0,74,0.00,,,0.00,,2013-01-15 16:43:00,
2013-01-15 11:53:00,29.0,22.0,30.45,NE,45,9.0,15.0,74,0.00,,,0.00,,2013-01-15 16:53:00,
2013-01-15 12:03:00,31.0,22.0,30.44,NNE,30,10.0,13.0,68,0.00,,,0.00,,2013-01-15 17:03:00,
2013-01-15 12:12:00,31.0,22.0,30.44,NNE,30,10.0,13.0,68,0.00,,,0.00,,2013-01-15 17:12:00,
2013-01-15 12:23:00,32.0,22.0,30.43,NNE,19,9.0,13.0,67,0.00,,,0.00,,2013-01-15 17:23:00,
2013-01-15 12:33:00,31.0,22.0,30.42,NNE,28,9.0,12.0,68,0.00,,,0.00,,2013-01-15 17:33:00,
2013-01-15 12:43:00,31.0,22.0,30.42,NNE,28,9.0,12.0,68,0.00,,,0.00,,2013-01-15 17:43:00,
2013-01-15 12:53:00,34.0,24.0,30.37,NNE,13,13.0,16.0,67,0.00,,,0.00,,2013-01-15 17:53:00,
2013-01-15 13:03:00,35.0,24.0,30.37,NNE,26,12.0,15.0,65,0.00,,,0.00,,2013-01-15 18:03:00,
2013-01-15 13:13:00,35.0,24.0,30.37,NNE,26,12.0,15.0,65,0.00,,,0.00,,2013-01-15 18:13:00,
2013-01-15 13:23:00,30.0,21.0,30.39,NE,45,7.0,13.0,69,0.00,,,0.00,,2013-01-15 18:23:00,
2013-01-15 13:33:00,30.0,21.0,30.39,NE,45,7.0,13.0,69,0.00,,,0.00,,2013-01-15 18:33:00,
2013-01-15 13:43:00,30.0,21.0,30.39,NE,45,7.0,13.0,69,0.00,,,0.00,,2013-01-15 18:43:00,
2013-01-15 13:54:00,31.0,23.0,30.38,NE,51,8.0,11.0,73,0.00,,,0.00,,2013-01-15 18:54:00,
2013-01-15 14:03:00,30.0,23.0,30.37,NNE,21,10.0,12.0,74,0.00,,,0.00,,2013-01-15 19:03:00,
2013-01-15 14:13:00,30.0,23.0,30.37,NNE,21,10.0,12.0,74,0.00,,,0.00,,2013-01-15 19:13:00,
2013-01-15 14:23:00,32.0,24.0,30.34,North,10,10.0,15.0,71,0.00,,,0.00,,2013-01-15 19:23:00,
2013-01-15 14:33:00,32.0,24.0,30.34,NNE,30,11.0,13.0,71,0.00,,,0.00,,2013-01-15 19:33:00,
2013-01-15 14:42:00,32.0,24.0,30.34,NNE,30,11.0,13.0,71,0.00,,,0.00,,2013-01-15 19:42:00,
2013-01-15 14:53:00,32.0,24.0,30.34,NNE,30,11.0,13.0,71,0.00,,,0.00,,2013-01-15 19:53:00,
2013-01-15 15:03:00,32.0,24.0,30.34,NNE,30,11.0,13.0,71,0.00,,,0.00,,2013-01-15 20:03:00,
2013-01-15 15:12:00,32.0,24.0,30.34,NNE,30,11.0,13.0,71,0.00,,,0.00,,2013-01-15 20:12:00,
2013-01-15 15:23:00,33.0,24.0,30.34,NNE,14,11.0,15.0,70,0.00,,,0.00,,2013-01-15 20:23:00,
2013-01-15 15:33:00,33.0,24.0,30.34,NNE,14,11.0,15.0,70,0.00,,,0.00,,2013-01-15 20:33:00,
2013-01-15 15:44:00,33.0,24.0,30.34,NNE,14,11.0,15.0,70,0.00,,,0.00,,2013-01-15 20:44:00,
2013-01-15 15:53:00,32.0,24.0,30.34,NNE,17,11.0,13.0,71,0.00,,,0.00,,2013-01-15 20:53:00,
2013-01-15 16:03:00,31.0,23.0,30.34,NNE,21,5.0,12.0,73,0.00,,,0.00,,2013-01-15 21:03:00,
2013-01-15 16:13:00,31.0,23.0,30.34,NNE,21,5.0,12.0,73,0.00,,,0.00,,2013-01-15 21:13:00,
2013-01-15 16:23:00,31.0,23.0,30.34,North,5,9.0,17.0,73,0.00,,,0.00,,2013-01-15 21:23:00,
2013-01-15 16:33:00,30.0,23.0,30.34,NNE,15,6.0,13.0,74,0.00,,,0.00,,2013-01-15 21:33:00,
2013-01-15 16:43:00,30.0,23.0,30.34,NNE,15,6.0,13.0,74,0.00,,,0.00,,2013-01-15 21:43:00,
2013-01-15 16:52:00,30.0,23.0,30.33,NNE,24,8.0,13.0,75,0.00,,,0.00,,2013-01-15 21:52:00,
2013-01-15 17:03:00,30.0,23.0,30.33,North,360,7.0,12.0,76,0.00,,,0.00,,2013-01-15 22:03:00,
2013-01-15 17:12:00,30.0,23.0,30.33,North,360,7.0,12.0,76,0.00,,,0.00,,2013-01-15 22:12:00,
2013-01-15 17:23:00,30.0,23.0,30.32,NNE,15,9.0,10.0,76,0.00,,,0.00,,2013-01-15 22:23:00,
2013-01-15 17:33:00,30.0,23.0,30.32,NNE,23,2.0,11.0,76,0.00,,,0.00,,2013-01-15 22:33:00,
2013-01-15 17:43:00,30.0,23.0,30.32,NNE,23,2.0,11.0,76,0.00,,,0.00,,2013-01-15 22:43:00,
2013-01-15 17:52:00,30.0,23.0,30.31,NNE,24,11.0,14.0,76,0.00,,,0.00,,2013-01-15 22:52:00,
2013-01-15 18:03:00,30.0,24.0,30.30,NNE,13,5.0,13.0,77,0.00,,,0.00,,2013-01-15 23:03:00,
2013-01-15 18:13:00,30.0,24.0,30.30,NNE,13,5.0,13.0,77,0.00,,,0.00,,2013-01-15 23:13:00,
2013-01-15 18:23:00,30.0,24.0,30.31,NNE,15,2.0,9.0,78,0.00,,,0.00,,2013-01-15 23:23:00,
2013-01-15 18:33:00,30.0,24.0,30.31,NNE,15,2.0,9.0,78,0.00,,,0.00,,2013-01-15 23:33:00,
2013-01-15 18:43:00,30.0,24.0,30.31,NNE,15,2.0,9.0,78,0.00,,,0.00,,2013-01-15 23:43:00,
2013-01-15 18:53:00,30.0,24.0,30.32,NNE,17,4.0,11.0,79,0.00,,,0.00,,2013-01-15 23:53:00,
2013-01-15 19:03:00,30.0,24.0,30.32,NNE,17,4.0,11.0,79,0.00,,,0.00,,2013-01-16 00:03:00,
2013-01-15 19:13:00,30.0,24.0,30.32,NNE,17,4.0,11.0,79,0.00,,,0.00,,2013-01-16 00:13:00,
2013-01-15 19:22:00,30.0,25.0,30.29,North,360,4.0,9.0,80,0.00,,,0.00,,2013-01-16 00:22:00,
2013-01-15 19:33:00,29.0,24.0,30.28,North,350,6.0,7.0,81,0.00,,,0.00,,2013-01-16 00:33:00,
2013-01-15 19:43:00,29.0,24.0,30.28,North,350,6.0,7.0,81,0.00,,,0.00,,2013-01-16 00:43:00,
2013-01-15 19:53:00,29.0,24.0,30.28,North,355,7.0,12.0,81,0.00,,,0.00,,2013-01-16 00:53:00,
2013-01-15 20:03:00,29.0,24.0,30.28,North,355,7.0,12.0,81,0.00,,,0.00,,2013-01-16 01:03:00,
2013-01-15 20:12:00,29.0,24.0,30.28,North,355,7.0,12.0,81,0.00,,,0.00,,2013-01-16 01:12:00,
2013-01-15 20:22:00,29.0,24.0,30.25,North,9,2.0,7.0,82,0.00,,,0.00,,2013-01-16 01:22:00,
2013-01-15 20:33:00,29.0,24.0,30.26,North,351,4.0,10.0,82,0.00,,,0.00,,2013-01-16 01:33:00,
2013-01-15 20:43:00,29.0,24.0,30.26,North,351,4.0,10.0,82,0.00,,,0.00,,2013-01-16 01:43:00,
2013-01-15 20:53:00,29.0,25.0,30.25,NNE,12,7.0,10.0,83,0.00,,,0.00,,2013-01-16 01:53:00,
2013-01-15 21:03:00,29.0,24.0,30.25,North,9,9.0,12.0,82,0.00,,,0.00,,2013-01-16 02:03:00,
2013-01-15 21:12:00,29.0,24.0,30.25,North,9,9.0,12.0,82,0.00,,,0.00,,2013-01-16 02:12:00,
2013-01-15 21:22:00,29.0,25.0,30.25,North,360,9.0,13.0,83,0.00,,,0.00,,2013-01-16 02:22:00,
2013-01-15 21:32:00,29.0,25.0,30.24,NNE,21,6.0,11.0,83,0.00,,,0.00,,2013-01-16 02:32:00,
2013-01-15 21:43:00,29.0,25.0,30.24,NNE,21,6.0,11.0,83,0.00,,,0.00,,2013-01-16 02:43:00,
2013-01-15 21:53:00,29.0,25.0,30.24,NNE,21,6.0,11.0,83,0.00,,,0.00,,2013-01-16 02:53:00,
2013-01-15 22:03:00,29.0,25.0,30.22,NNE,16,8.0,11.0,83,0.00,,,0.00,,2013-01-16 03:03:00,
2013-01-15 22:12:00,29.0,25.0,30.21,North,360,2.0,9.0,84,0.00,,,0.00,,2013-01-16 03:12:00,
2013-01-15 22:22:00,29.0,25.0,30.21,North,360,2.0,9.0,84,0.00,,,0.00,,2013-01-16 03:22:00,
2013-01-15 22:33:00,28.0,24.0,30.20,North,5,4.0,10.0,83,0.00,,,0.00,,2013-01-16 03:33:00,
2013-01-15 22:43:00,28.0,24.0,30.20,North,5,4.0,10.0,83,0.00,,,0.00,,2013-01-16 03:43:00,
2013-01-15 22:53:00,28.0,24.0,30.20,North,360,3.0,10.0,83,0.00,,,0.00,,2013-01-16 03:53:00,
2013-01-15 23:02:00,28.0,24.0,30.19,NNE,26,2.0,9.0,83,0.00,,,0.00,,2013-01-16 04:02:00,
2013-01-15 23:12:00,28.0,24.0,30.19,NNE,26,2.0,9.0,83,0.00,,,0.00,,2013-01-16 04:12:00,
2013-01-15 23:22:00,28.0,24.0,30.19,North,5,3.0,7.0,84,0.00,,,0.00,,2013-01-16 04:22:00,
2013-01-15 23:33:00,28.0,24.0,30.19,NNE,20,0.0,5.0,84,0.00,,,0.00,,2013-01-16 04:33:00,
2013-01-15 23:42:00,28.0,24.0,30.19,NNE,20,0.0,5.0,84,0.00,,,0.00,,2013-01-16 04:42:00,
2013-01-15 23:52:00,28.0,24.0,30.19,NNE,21,4.0,9.0,84,0.00,,,0.00,,2013-01-16 04:52:00,